Philadelphia, PA

1:02 AM EST on November 18, 2019 (GMT -0500)
Philadelphia International

Weather History for KPHL - May, 2019

Change the Weather History Date:

Sunday, May 5, 2019

  Actual Average Record
Temperature  
Mean Temperature 58 °F 60 °F  
Max Temperature 63 °F 71 °F 90 °F (1928)
Min Temperature 53 °F 51 °F 33 °F (1966)
Degree Days  
Heating Degree Days 7 6  
Month to date heating degree days 19 31  
Since 1 July heating degree days 4304 4521  
Cooling Degree Days 0 1  
Month to date cooling degree days 4 5  
Year to date cooling degree days 28 18  
Growing Degree Days 6 (Base 50)    
Moisture  
Dew Point 54 °F    
Average Humidity 86    
Maximum Humidity 93    
Minimum Humidity 78    
Precipitation  
Precipitation 1.06 in 0.11 in 1.80 in (1948)
Month to date precipitation 1.06 0.54  
Year to date precipitation 15.12 13.57  
Snow  
Snow 0.00 in 0.00 in 0.00 in ()
Month to date snowfall 0.0 0.0  
Since 1 July snowfall 17.1 22.4  
Snow Depth 0.00 in    
Sea Level Pressure  
Sea Level Pressure 29.78 in    
Wind  
Wind Speed 12 mph (NE)    
Max Wind Speed 22 mph    
Max Gust Speed 28 mph    
Visibility 7 miles    
Events Rain    
T = Trace of Precipitation, MM = Missing Value Source: NWS Daily Summary

Daily Weather History Graph

Daily Weather History Graph

Search for Another Location

Airport or City:

Astronomy

May. 05, 2019 Rise Set
Actual Time 5:56 AM EDT 7:59 PM EDT
Civil Twilight 5:27 AM EDT 8:28 PM EDT
Nautical Twilight 4:51 AM EDT 9:05 PM EDT
Astronomical Twilight 4:11 AM EDT 9:44 PM EDT
Moon 6:39 AM EDT (5/5) 8:49 PM EDT (5/5)
Length of Visible Light 15h 01m
Length of Day
14h 02m
New Moon, 1% of the Moon is Illuminated
May 5
New Moon
May 11
First Quarter
May 18
Full
May 26
Last Quarter
Jun 3
New

Hourly Weather History & Observations

Time (EDT) Temp. Dew Point Humidity Pressure Visibility Wind Dir Wind Speed Gust Speed Precip Events Conditions
12:54 AM 62.1 °F 57.0 °F 84% 29.82 in 10.0 mi East 4.6 mph - N/A   Overcast
1:54 AM 62.1 °F 55.9 °F 80% 29.79 in 10.0 mi ENE 5.8 mph - N/A   Overcast
2:41 AM 61.0 °F 55.9 °F 83% 29.79 in 10.0 mi NE 5.8 mph - N/A   Overcast
2:54 AM 61.0 °F 55.9 °F 83% 29.79 in 10.0 mi NE 5.8 mph - 0.00 in Rain Light Rain
3:54 AM 60.1 °F 57.0 °F 90% 29.78 in 10.0 mi NE 8.1 mph - 0.00 in Rain Light Rain
4:01 AM 59.0 °F 57.0 °F 93% 29.78 in 8.0 mi NE 12.7 mph - 0.01 in Rain Light Rain
4:54 AM 59.0 °F 57.0 °F 93% 29.76 in 7.0 mi NE 10.4 mph - 0.04 in Rain Light Rain
5:25 AM 59.0 °F 57.0 °F 93% 29.77 in 6.0 mi NE 5.8 mph - 0.02 in Rain Rain
5:46 AM 59.0 °F 57.0 °F 93% 29.76 in 6.0 mi NE 8.1 mph - 0.05 in Rain Rain
5:54 AM 59.0 °F 57.0 °F 93% 29.77 in 6.0 mi NE 10.4 mph - 0.06 in Rain Light Rain
6:42 AM 57.9 °F 55.9 °F 93% 29.78 in 7.0 mi NE 8.1 mph - 0.04 in Rain Light Rain
6:54 AM 57.9 °F 55.9 °F 93% 29.78 in 7.0 mi NE 6.9 mph - 0.05 in Rain Light Rain
7:21 AM 57.9 °F 55.9 °F 93% 29.78 in 4.0 mi NE 10.4 mph - 0.02 in Rain Rain
7:32 AM 57.9 °F 55.9 °F 93% 29.79 in 9.0 mi NNE 11.5 mph - 0.03 in Rain Light Rain
7:54 AM 57.9 °F 55.9 °F 93% 29.79 in 9.0 mi NE 12.7 mph - 0.03 in Rain Light Rain
8:54 AM 57.9 °F 55.9 °F 93% 29.80 in 7.0 mi ENE 10.4 mph - 0.03 in Rain Light Rain
9:54 AM 57.0 °F 54.0 °F 89% 29.78 in 8.0 mi East 12.7 mph - 0.04 in Rain Light Rain
10:54 AM 57.0 °F 55.0 °F 93% 29.76 in 8.0 mi ENE 15.0 mph 20.7 mph 0.03 in Rain Light Rain
11:27 AM 57.0 °F 55.0 °F 93% 29.78 in 3.0 mi NE 10.4 mph - 0.01 in Rain Heavy Rain
11:54 AM 57.0 °F 55.0 °F 93% 29.78 in 3.0 mi NNE 5.8 mph - 0.12 in Rain Rain
12:38 PM 57.9 °F 55.9 °F 93% 29.76 in 7.0 mi NE 16.1 mph - 0.11 in Rain Light Rain
12:48 PM 57.2 °F 55.4 °F 94% 29.75 in 9.0 mi NE 17.3 mph - 0.11 in Rain Light Rain
12:54 PM 59.0 °F 55.9 °F 90% 29.75 in 10.0 mi NE 16.1 mph - 0.12 in Rain Light Rain
1:54 PM 57.0 °F 55.0 °F 93% 29.76 in 4.0 mi NE 11.5 mph - 0.00 in Rain Light Rain
2:54 PM 55.9 °F 54.0 °F 93% 29.75 in 3.0 mi NE 15.0 mph - 0.01 in Rain Light Rain
3:54 PM 55.9 °F 54.0 °F 93% 29.74 in 4.0 mi NE 11.5 mph - 0.00 in Rain Light Rain
4:40 PM 55.9 °F 53.1 °F 90% 29.73 in 3.0 mi ENE 10.4 mph - 0.02 in Rain Light Rain
4:54 PM 55.9 °F 53.1 °F 90% 29.73 in 3.0 mi ENE 12.7 mph 21.9 mph 0.03 in Rain Light Rain
5:54 PM 55.0 °F 53.1 °F 93% 29.74 in 3.0 mi ENE 10.4 mph - 0.06 in Rain Light Rain
6:54 PM 54.0 °F 52.0 °F 93% 29.75 in 3.0 mi NE 13.8 mph - 0.11 in Rain Light Rain
7:46 PM 54.0 °F 52.0 °F 93% 29.78 in 2.0 mi NE 17.3 mph - 0.16 in Rain Light Rain
7:54 PM 54.0 °F 52.0 °F 93% 29.78 in 2.0 mi NE 18.4 mph - 0.19 in Rain Light Rain
8:23 PM 54.0 °F 53.1 °F 97% 29.79 in 4.0 mi NNE 13.8 mph - 0.05 in Rain Light Rain
8:54 PM 55.0 °F 52.0 °F 89% 29.79 in 4.0 mi NNE 13.8 mph 27.6 mph 0.08 in Rain Light Rain
9:00 PM 54.0 °F 52.0 °F 93% 29.79 in 6.0 mi NE 20.7 mph 26.5 mph 0.01 in Rain Light Rain
9:34 PM 53.1 °F 51.1 °F 93% 29.80 in 8.0 mi NE 18.4 mph 27.6 mph 0.05 in Rain Light Rain
9:47 PM 53.1 °F 51.1 °F 93% 29.80 in 8.0 mi NE 17.3 mph 26.5 mph 0.06 in Rain Light Rain
9:54 PM 53.1 °F 51.1 °F 93% 29.80 in 8.0 mi ENE 16.1 mph 25.3 mph 0.06 in Rain Light Rain
9:59 PM 53.1 °F 51.1 °F 93% 29.80 in 8.0 mi ENE 13.8 mph 24.2 mph 0.00 in Rain Light Rain
10:15 PM 53.1 °F 50.0 °F 89% 29.80 in 10.0 mi NE 13.8 mph 24.2 mph 0.00 in   Overcast
10:52 PM 53.6 °F 50.0 °F 88% 29.79 in 10.0 mi NE 13.8 mph 21.9 mph 0.00 in Rain Light Rain
10:54 PM 53.1 °F 50.0 °F 89% 29.79 in 10.0 mi NE 12.7 mph 21.9 mph 0.00 in Rain Light Rain
11:54 PM 54.0 °F 50.0 °F 86% 29.81 in 10.0 mi NE 13.8 mph - 0.00 in   Overcast